Lid_Strength_Index
4 3 2 1 1 -0 -0 -0 -0 0 1 1 2 2 3 3 4 7 11 10 10 14 16 15 15 16 16 17 19 21 21 21 24 26 27 28 28 24 25 21 20 21 22 25 21 25 24 13 14 16 14 14 15 15
4 3 3 2 1 1 0 -0 1 1 1 1 2 3 3 3 5 7 12 10 10 14 15 14 15 15 16 16 18 20 20 22 17 23 25 26 27 28 27 27 17 22 18 19 19 19 14 13 12 13 15 15 15 16
4 4 3 2 1 1 0 -0 -0 1 1 1 2 2 2 3 5 6 11 11 12 15 16 15 16 16 14 15 14 19 19 16 16 17 21 25 26 20 26 25 21 18 16 17 16 16 15 14 13 14 15 15 15 15
4 4 4 2 2 1 1 -0 0 0 1 1 1 2 2 3 4 7 9 9 11 13 17 18 14 16 14 14 14 15 16 16 16 18 25 28 27 18 21 20 20 18 17 20 19 16 15 14 15 14 15 16 16 15
4 4 4 2 2 1 0 0 1 1 2 1 1 2 2 3 4 7 8 10 10 11 18 19 16 15 15 15 16 15 15 16 21 22 26 24 20 20 21 21 22 18 18 18 19 16 16 15 16 15 16 16 16 15
3 4 4 3 2 1 1 1 1 1 3 1 1 1 2 4 6 8 13 9 10 12 17 20 17 17 16 16 17 18 17 21 23 22 25 23 17 21 24 26 20 18 17 16 16 17 16 16 17 17 17 18 18 18
3 4 4 3 2 2 2 1 1 2 2 1 1 1 3 5 6 10 12 10 9 11 17 22 22 17 16 17 19 20 19 20 22 27 27 23 21 22 27 25 19 18 17 17 17 16 18 17 17 17 17 18 19 21
3 3 4 3 3 3 2 2 2 2 1 2 1 3 4 4 6 11 9 7 9 12 15 22 24 22 17 21 23 20 22 23 23 25 24 25 24 23 22 20 21 22 22 20 17 19 18 20 21 22 23 22 23 23
2 3 4 3 3 3 2 2 2 2 1 2 1 3 6 10 12 11 6 7 10 12 17 23 24 24 18 21 20 21 20 27 21 23 27 22 28 24 22 22 24 20 21 22 24 28 26 23 23 26 26 27 24 25
3 3 4 4 4 3 2 2 2 2 3 2 5 10 13 12 6 7 11 12 13 13 20 24 24 24 19 20 23 22 20 27 27 27 22 26 26 21 20 21 24 24 21 24 23 24 27 25 24 26 24 27 25 25
2 3 4 4 4 3 2 2 2 2 2 9 12 14 10 6 11 12 14 14 14 16 20 24 22 22 19 23 25 22 27 27 31 28 28 34 29 23 24 21 18 22 22 22 26 26 20 21 20 22 27 29 29 26
2 3 3 4 3 3 2 2 1 4 9 9 10 10 11 11 12 14 16 18 18 20 23 23 22 20 21 22 25 24 30 28 30 32 31 31 23 23 27 26 23 21 23 24 30 27 31 28 29 26 24 26 27 28
1 2 3 4 3 2 2 2 2 5 5 7 11 13 12 13 16 19 21 18 17 22 24 22 23 22 23 23 26 29 31 30 33 30 28 24 23 26 27 31 30 28 25 25 31 32 32 33 34 29 27 32 28 27
1 2 3 3 2 2 2 2 3 4 9 10 12 15 14 16 19 19 20 19 20 20 19 19 22 21 23 24 27 28 34 32 34 33 26 22 23 23 25 30 25 23 23 23 24 27 28 27 31 34 29 26 24 25
1 2 3 2 2 2 2 3 3 7 9 11 15 17 16 21 24 27 25 20 22 16 18 20 21 21 24 26 30 33 33 32 28 24 23 22 26 27 25 27 26 22 22 22 26 26 27 28 28 30 33 31 27 26
1 1 3 1 2 3 2 2 5 8 8 11 15 17 19 18 26 26 22 20 18 15 17 18 22 24 26 28 31 28 26 25 21 24 25 28 29 30 26 25 24 21 22 23 25 27 28 28 27 27 33 31 28 25
0 6 2 2 2 3 4 6 5 9 10 13 16 20 20 18 16 20 18 17 14 15 18 23 25 22 28 32 30 27 23 20 20 25 29 30 28 27 28 27 26 24 23 24 26 28 29 31 30 29 27 29 30 30
6 4 2 3 3 4 6 9 10 13 16 16 18 20 26 23 20 20 17 14 14 16 20 21 24 27 25 26 25 20 21 23 32 29 29 32 34 32 25 24 25 23 24 26 27 28 29 27 25 24 27 29 30 32
5 5 3 3 5 9 10 12 14 21 19 20 22 23 24 24 22 16 14 14 21 20 20 24 24 24 23 22 20 20 26 27 24 27 31 35 35 29 26 28 28 29 26 27 26 25 25 26 24 25 25 26 24 26
3 4 3 4 5 9 13 14 12 16 17 19 24 24 22 20 20 15 15 22 23 22 22 23 21 20 20 21 21 23 24 25 26 28 30 31 34 31 27 24 24 28 28 30 30 29 30 30 32 27 25 24 24 26
4 6 5 7 10 11 13 15 16 17 17 20 25 22 19 22 21 22 22 24 22 24 23 22 20 21 23 26 30 28 26 24 23 23 24 28 33 31 30 32 27 26 28 25 25 27 25 22 24 25 25 25 29 28
7 5 8 9 12 13 15 15 15 17 19 22 23 23 23 24 23 21 21 22 24 21 20 19 21 21 23 24 26 28 29 28 32 30 28 25 27 28 28 27 25 25 24 23 23 23 23 27 26 24 24 29 28 29
5 7 9 11 14 15 16 16 16 20 17 21 24 23 25 25 23 22 22 22 21 21 19 22 23 23 21 26 30 30 32 27 28 30 30 31 29 28 25 25 26 23 25 26 29 24 25 27 26 25 27 28 29 31
6 10 12 14 14 17 16 17 19 20 19 23 23 21 26 22 25 25 24 26 19 20 21 21 21 20 21 25 26 27 28 29 28 30 31 27 26 30 28 26 29 29 27 26 26 28 26 25 25 25 25 26 26 25
11 13 13 16 15 16 18 24 28 22 22 29 26 23 21 25 27 28 25 20 19 19 21 22 21 18 16 24 28 28 31 27 24 25 27 30 31 29 29 32 30 28 26 24 26 26 29 27 24 25 26 24 24 25
15 16 14 15 18 20 23 22 25 25 24 27 27 27 27 25 25 23 21 20 21 26 26 26 21 19 19 22 23 27 26 30 26 25 26 25 23 23 23 24 25 23 25 25 22 23 24 25 25 25 24 25 26 25
16 18 20 27 20 20 23 25 24 20 23 22 23 25 21 23 22 22 27 29 30 32 32 29 28 27 26 27 28 30 33 28 26 24 28 23 25 25 22 22 23 22 21 22 21 22 23 24 24 24 23 24 23 23
26 27 21 25 25 26 21 24 22 23 24 27 22 21 18 16 17 30 30 30 34 33 32 30 28 28 28 30 31 32 29 31 28 24 22 24 30 30 29 28 27 22 22 19 20 21 21 22 22 22 22 22 22 22
27 31 31 27 29 28 29 26 23 30 31 26 21 24 28 33 34 33 32 33 33 34 31 29 26 26 26 28 30 31 31 30 24 23 25 26 25 23 30 29 28 27 25 23 21 21 21 21 22 22 22 23 24 25
30 33 32 32 28 31 34 33 34 33 35 33 32 31 34 35 34 32 34 36 35 35 33 31 31 28 26 25 28 30 32 32 31 28 25 25 25 30 32 31 28 28 26 23 23 23 20 24 23 25 25 26 27 28
35 35 32 31 31 31 33 33 36 36 34 32 34 32 35 34 34 34 35 35 36 34 32 32 32 33 31 29 29 30 29 32 33 33 33 34 33 33 32 31 29 28 26 24 23 25 25 26 24 24 24 25 26 26
31 34 30 27 26 29 36 34 33 31 33 32 33 36 35 34 32 32 33 33 33 34 34 34 33 34 32 32 31 31 30 32 33 32 32 31 31 31 31 30 27 25 25 25 25 25 24 24 24 25 25 26 26 26
32 34 34 30 30 30 31 29 29 31 32 35 36 38 39 35 32 35 33 34 36 36 35 34 34 33 32 31 30 29 28 27 25 23 23 23 24 25 25 25 24 24 24 24 25 25 24 25 26 26 27 28 28 28